Wind_Speed
17 17 17 16 14 12 11 9 8 6 5 5 5 4 4 2 1 1 2 2 3 3 4 4 5 5 5 5 6 7 7 7 7 7 7 8 9 9 9 9 9 10 10
17 16 15 15 13 12 11 10 9 7 5 5 4 4 4 3 2 2 3 3 3 4 5 5 6 6 6 6 7 8 8 8 8 9 9 9 10 10 11 11 11 11 10
16 16 14 14 13 11 11 10 9 7 6 5 4 4 3 3 3 3 3 4 5 5 5 6 7 7 7 8 8 8 9 9 10 10 10 10 11 11 11 12 12 12 12
16 15 14 13 13 11 10 9 8 7 5 5 5 4 4 3 3 4 4 4 5 6 6 7 7 8 9 9 10 10 10 10 10 11 12 12 12 12 13 14 14 14 14
15 14 13 13 13 11 10 9 8 6 5 5 5 5 4 4 4 4 4 5 6 8 8 8 9 10 10 11 11 11 12 12 13 13 13 13 14 14 14 15 15 15 15
14 14 13 12 12 11 10 9 8 7 6 6 5 5 5 5 5 5 5 6 7 8 8 9 10 10 11 12 13 13 14 14 14 14 14 14 15 15 15 15 15 16 17
13 14 13 12 11 11 10 9 9 8 7 6 5 6 6 5 5 5 6 6 6 7 8 9 10 11 11 12 13 14 14 15 15 15 15 15 15 16 17 17 17 18 19
13 13 13 12 12 11 10 9 9 8 7 6 6 6 6 6 6 5 5 6 7 8 8 9 10 11 11 13 13 14 14 15 15 16 17 17 17 18 18 18 19 19 20
13 13 13 12 11 11 11 10 9 8 7 7 7 6 7 6 6 5 5 6 7 8 9 10 10 10 11 12 13 13 13 14 15 16 16 17 18 18 18 19 19 19 19
12 12 12 12 12 12 11 10 9 8 8 8 7 7 7 7 6 6 7 7 8 8 8 9 9 10 10 11 12 12 12 13 14 15 16 16 17 17 17 17 17 18 19
11 12 12 12 12 12 12 10 9 9 9 8 8 8 7 7 7 8 8 8 8 9 9 9 10 10 11 11 11 12 13 13 14 16 16 16 16 17 17 18 18 18 19
11 11 12 12 12 12 12 11 10 9 9 9 9 8 8 8 8 9 9 9 10 10 10 10 10 11 11 11 11 12 12 13 14 15 15 16 17 17 18 18 18 19 19
11 11 11 12 13 12 12 11 10 10 10 9 9 9 9 9 9 10 10 10 11 11 11 11 11 12 12 12 12 12 13 13 14 15 15 16 17 18 18 18 18 19 19
11 12 12 13 13 12 12 12 11 11 10 10 10 10 10 10 10 10 11 12 12 12 12 12 12 13 13 13 13 13 14 14 15 15 16 16 16 16 17 17 18 19 20
12 13 13 13 14 13 12 12 12 12 12 11 11 11 11 11 12 12 12 12 13 13 13 13 13 13 14 14 15 15 16 17 16 16 17 17 17 17 17 18 19 20 21
14 14 15 15 15 14 13 13 13 13 13 13 12 13 13 13 13 13 13 13 14 13 13 13 14 15 15 15 16 16 16 17 17 18 18 18 18 18 19 19 20 21 21
17 17 17 16 16 15 15 15 15 14 15 14 14 14 14 14 14 14 14 14 14 15 15 15 15 15 16 16 17 17 17 18 19 19 19 19 19 20 20 21 21 22 22
19 19 19 18 17 17 16 17 16 16 17 16 15 16 15 14 15 15 15 16 15 16 17 17 17 17 17 17 18 18 18 19 19 19 20 20 20 21 22 22 23 24 24
21 21 21 20 19 19 19 19 19 19 19 17 16 17 16 15 16 16 16 16 17 18 18 18 18 18 18 18 19 19 19 19 19 20 20 21 21 22 23 23 24 24 25
23 24 23 22 22 21 21 21 21 21 21 20 18 18 17 17 17 18 18 18 18 19 19 19 19 20 20 20 20 20 20 20 20 21 21 22 23 23 24 24 25 25 26
27 26 26 26 25 24 24 24 24 23 22 22 20 19 20 20 20 20 20 20 20 20 20 21 21 21 22 21 21 21 22 22 22 22 23 24 24 24 25 26 26 26 27
29 29 29 29 28 28 28 27 27 27 26 25 24 23 23 23 23 23 23 23 23 23 23 23 23 23 23 23 24 24 24 23 24 24 25 26 26 27 27 28 28 28 28
32 31 32 32 31 31 30 30 30 30 29 28 28 27 26 26 26 27 27 26 26 26 25 25 25 25 25 25 25 25 26 26 26 27 27 27 28 29 30 30 30 30 31
35 34 34 33 33 33 32 33 33 33 32 32 31 30 30 29 29 29 29 29 28 28 27 27 27 27 27 27 28 28 28 28 29 29 29 30 30 31 31 31 31 31 32
38 37 37 36 36 36 35 35 35 35 35 35 34 33 33 32 31 31 31 31 31 30 30 29 29 29 29 30 30 30 30 30 30 31 31 31 31 31 32 32 32 32 32
40 39 38 38 38 38 37 37 37 37 36 36 35 34 33 33 33 32 32 32 32 31 31 31 31 30 30 30 30 31 32 32 31 31 32 32 32 32 32 32 33 33 33
Wind_Direction
7 7 6 1 360 0 1 2 359 1 12 23 24 19 10 4 12 300 277 253 243 237 239 232 234 237 239 241 247 250 254 261 270 272 273 271 271 274 278 280 280 279 279
6 3 3 2 358 360 1 359 354 353 3 11 16 1 3 355 345 320 293 277 261 242 245 249 248 250 251 253 253 253 256 263 268 270 271 273 276 278 279 277 275 277 277
0 0 358 357 358 359 359 356 359 7 4 357 355 345 342 335 329 323 303 283 271 263 259 260 256 257 259 257 262 263 262 263 266 269 272 274 277 280 281 281 275 274 272
358 357 356 355 357 357 356 352 355 1 2 1 356 349 343 338 330 318 312 297 278 272 270 264 259 261 265 265 265 265 265 265 266 268 270 272 275 277 279 280 277 276 277
357 357 357 357 357 355 356 355 353 352 358 360 358 354 352 345 333 317 310 299 283 275 272 269 266 266 266 269 268 263 265 266 268 270 272 273 274 277 278 278 277 277 278
357 359 357 356 360 358 355 356 356 351 347 344 343 337 341 344 332 318 305 297 288 280 279 273 268 268 269 269 268 267 270 269 268 270 273 273 274 276 278 277 276 276 278
353 355 355 355 358 358 355 353 354 349 343 337 332 329 329 332 326 311 308 308 297 286 287 283 275 273 272 272 271 270 271 272 272 271 271 273 275 277 277 277 274 274 276
349 349 351 352 353 353 352 351 350 347 345 341 336 328 320 320 323 313 311 313 303 292 289 287 279 279 278 279 281 278 275 275 275 275 272 273 275 277 278 277 275 275 276
342 345 347 348 348 349 350 349 350 347 343 339 336 330 322 318 320 318 316 319 312 300 292 288 286 285 285 281 279 279 281 281 280 278 276 277 278 279 281 282 278 276 276
335 342 344 346 346 350 349 348 348 347 343 338 332 326 323 323 326 325 320 317 316 312 300 294 292 288 288 289 285 284 287 288 285 280 280 281 281 281 282 284 281 278 278
330 340 345 348 347 346 344 346 347 345 342 339 334 328 326 323 322 322 320 317 316 311 307 300 297 293 293 291 289 289 290 290 290 286 282 282 282 282 281 282 281 278 279
322 333 343 348 348 346 344 345 343 341 338 336 335 330 324 321 320 320 317 316 314 312 309 307 302 299 297 294 292 291 291 290 291 290 286 284 283 282 282 281 281 280 281
316 325 335 342 344 342 340 338 336 334 333 333 332 329 326 322 319 317 314 314 315 309 304 305 304 302 298 296 295 294 292 292 292 292 291 290 289 284 283 282 282 282 283
308 319 324 329 334 333 332 332 331 330 328 327 326 326 326 326 324 318 316 314 315 314 308 304 305 303 298 296 296 296 296 294 293 293 292 292 291 288 287 284 285 287 288
300 310 314 320 323 325 326 328 329 328 326 322 320 320 321 321 322 322 318 318 320 317 313 307 307 307 304 300 297 296 295 295 294 293 292 292 291 290 289 287 288 289 290
289 298 306 310 315 318 320 320 323 324 322 318 317 318 317 318 318 319 319 320 321 318 315 311 308 308 306 304 302 299 298 297 295 293 292 291 291 290 290 290 291 291 292
284 291 297 303 305 310 311 315 311 312 313 313 312 314 314 314 316 314 315 316 316 317 315 312 309 306 306 306 304 300 298 297 296 294 292 291 289 290 291 292 292 292 292
282 287 291 295 298 301 302 303 305 305 308 309 306 308 308 308 311 312 312 313 312 313 313 310 309 306 305 304 303 301 299 297 297 296 294 292 290 290 291 290 291 292 292
277 281 285 289 290 293 296 297 296 297 303 304 302 302 305 306 307 309 310 311 312 312 311 309 307 305 304 304 304 301 299 297 297 296 296 295 294 293 293 292 292 291 291
274 277 280 284 287 288 290 293 292 293 297 297 300 301 304 306 306 306 306 307 308 309 309 307 306 305 303 303 303 302 299 298 297 296 295 295 295 295 295 294 293 292 291
270 274 277 281 284 284 285 287 288 289 292 296 298 297 299 301 303 303 303 303 304 306 306 305 305 304 303 302 301 301 299 297 296 295 295 295 295 295 294 294 293 293 292
268 270 274 277 279 281 283 283 283 285 288 290 291 292 293 295 298 300 300 299 300 302 303 303 303 303 303 302 300 300 299 298 297 296 295 294 293 293 294 294 293 292 292
267 269 271 272 273 277 279 281 280 280 285 287 286 287 289 290 293 295 296 296 297 298 299 300 300 300 300 300 300 298 297 297 297 297 297 296 294 293 293 293 293 292 291
264 268 268 268 271 272 274 277 278 279 281 286 287 286 287 288 290 291 293 294 294 295 295 296 297 297 296 296 296 296 295 295 295 296 295 294 294 293 293 293 293 292 292
262 265 267 268 272 273 273 275 276 277 279 284 284 285 288 289 287 289 292 292 291 292 293 294 294 295 295 295 294 294 295 295 295 295 295 295 294 294 293 293 292 291 292
262 264 265 267 270 271 271 273 275 276 278 280 279 281 283 285 285 286 289 290 289 290 291 292 293 293 294 295 296 295 295 294 295 296 296 295 294 294 293 291 290 291 292
Height
5911 5908 5906 5903 5901 5899 5897 5895 5893 5892 5891 5891 5890 5890 5890 5890 5890 5890 5890 5890 5891 5891 5892 5892 5893 5893 5894 5895 5895 5895 5896 5896 5896 5896 5896 5896 5896 5896 5896 5896 5896 5896 5895
5911 5908 5906 5904 5901 5899 5897 5895 5893 5890 5890 5891 5891 5891 5890 5890 5890 5890 5890 5890 5890 5890 5891 5891 5892 5892 5893 5893 5894 5894 5894 5895 5895 5895 5894 5895 5895 5894 5894 5894 5894 5893 5893
5911 5909 5906 5904 5902 5899 5897 5895 5893 5891 5891 5891 5891 5890 5890 5890 5890 5890 5889 5889 5889 5889 5890 5890 5890 5891 5891 5892 5892 5892 5892 5892 5893 5893 5893 5892 5892 5892 5892 5891 5891 5891 5891
5911 5909 5906 5904 5902 5899 5897 5895 5893 5892 5891 5891 5891 5890 5890 5889 5889 5889 5889 5888 5888 5888 5888 5888 5888 5889 5889 5890 5890 5890 5890 5890 5890 5890 5890 5890 5890 5890 5889 5889 5888 5888 5888
5911 5908 5906 5903 5901 5899 5897 5895 5894 5892 5891 5891 5890 5890 5889 5889 5889 5888 5888 5888 5887 5887 5887 5887 5887 5887 5887 5887 5887 5887 5887 5887 5887 5887 5887 5887 5887 5886 5886 5886 5885 5885 5884
5911 5908 5906 5904 5901 5899 5898 5896 5894 5893 5891 5890 5890 5890 5889 5888 5888 5887 5887 5886 5886 5885 5885 5885 5884 5884 5884 5884 5884 5884 5884 5884 5884 5884 5884 5884 5884 5883 5883 5882 5882 5881 5881
5910 5908 5906 5903 5901 5899 5897 5896 5894 5893 5891 5890 5889 5889 5888 5887 5887 5886 5885 5885 5884 5883 5883 5882 5882 5882 5881 5881 5881 5881 5881 5880 5881 5881 5880 5880 5880 5879 5879 5878 5878 5877 5877
5910 5908 5905 5903 5901 5899 5897 5895 5894 5892 5891 5889 5888 5888 5887 5886 5885 5885 5884 5883 5882 5881 5881 5880 5880 5879 5878 5878 5878 5878 5877 5877 5877 5876 5876 5876 5875 5875 5874 5874 5873 5873 5873
5909 5907 5905 5903 5900 5898 5897 5895 5893 5892 5890 5889 5888 5887 5886 5884 5884 5883 5882 5881 5880 5879 5879 5878 5877 5877 5876 5875 5875 5874 5874 5874 5873 5872 5872 5871 5871 5870 5870 5869 5868 5868 5868
5908 5906 5904 5902 5900 5898 5896 5894 5893 5891 5890 5889 5887 5886 5885 5884 5882 5882 5881 5880 5879 5877 5876 5875 5874 5874 5873 5873 5872 5872 5871 5870 5869 5868 5868 5867 5867 5866 5865 5864 5863 5863 5863
5907 5905 5903 5901 5900 5898 5896 5893 5892 5891 5890 5888 5887 5885 5884 5883 5882 5881 5880 5878 5877 5876 5875 5873 5872 5871 5870 5870 5869 5869 5868 5867 5866 5865 5864 5863 5862 5862 5861 5860 5859 5858 5858
5906 5904 5902 5901 5899 5897 5895 5893 5892 5890 5889 5887 5886 5885 5883 5882 5881 5880 5878 5877 5876 5874 5873 5871 5870 5869 5868 5867 5866 5865 5864 5863 5862 5861 5860 5859 5858 5857 5856 5855 5854 5854 5853
5904 5903 5901 5899 5898 5896 5894 5893 5891 5890 5888 5887 5885 5884 5883 5881 5880 5878 5876 5875 5873 5872 5870 5869 5867 5866 5865 5864 5863 5862 5861 5860 5859 5857 5856 5855 5854 5852 5851 5850 5849 5849 5848
5902 5901 5899 5898 5896 5895 5893 5892 5890 5889 5887 5886 5884 5883 5881 5880 5878 5876 5874 5873 5871 5869 5867 5866 5865 5864 5863 5862 5860 5859 5858 5856 5855 5854 5852 5851 5850 5848 5847 5846 5845 5844 5843
5899 5899 5897 5896 5894 5892 5891 5890 5888 5887 5886 5884 5883 5881 5879 5878 5876 5874 5872 5870 5868 5866 5865 5863 5862 5861 5860 5858 5857 5855 5854 5853 5851 5850 5848 5847 5846 5844 5843 5842 5840 5839 5838
5896 5896 5895 5893 5892 5890 5889 5888 5887 5885 5883 5882 5880 5879 5877 5875 5873 5872 5870 5868 5866 5864 5862 5861 5859 5858 5857 5855 5853 5852 5850 5848 5847 5845 5844 5842 5841 5840 5838 5837 5835 5834 5832
5892 5892 5891 5890 5889 5887 5886 5885 5883 5882 5881 5879 5877 5876 5874 5872 5871 5869 5867 5865 5863 5861 5859 5858 5856 5855 5853 5851 5849 5847 5846 5844 5842 5841 5839 5837 5836 5835 5833 5832 5830 5829 5827
5888 5887 5887 5886 5885 5884 5883 5881 5880 5879 5877 5875 5874 5873 5871 5869 5868 5866 5864 5862 5860 5858 5856 5855 5853 5851 5849 5847 5845 5843 5842 5840 5838 5836 5834 5833 5831 5830 5828 5826 5825 5823 5821
5883 5883 5882 5881 5880 5879 5878 5877 5876 5875 5873 5871 5870 5869 5867 5866 5864 5862 5860 5859 5857 5855 5853 5851 5849 5847 5845 5843 5841 5839 5837 5835 5833 5832 5830 5828 5826 5824 5822 5820 5819 5817 5815
5876 5877 5877 5876 5875 5874 5873 5872 5871 5870 5869 5867 5866 5865 5863 5862 5860 5858 5857 5855 5853 5851 5849 5847 5845 5843 5841 5839 5837 5835 5833 5831 5829 5827 5825 5823 5821 5818 5816 5814 5812 5810 5808
5869 5870 5870 5870 5869 5868 5868 5867 5866 5865 5863 5862 5861 5860 5859 5857 5856 5854 5852 5850 5849 5847 5845 5843 5840 5838 5836 5834 5832 5830 5827 5825 5823 5821 5819 5817 5814 5812 5810 5808 5806 5803 5801
5861 5862 5862 5863 5862 5862 5861 5860 5860 5859 5857 5856 5855 5855 5853 5852 5850 5848 5847 5845 5843 5842 5839 5837 5835 5833 5831 5828 5826 5824 5822 5819 5817 5815 5812 5810 5808 5805 5803 5801 5798 5796 5794
5853 5854 5854 5854 5854 5854 5853 5853 5852 5851 5850 5849 5848 5848 5846 5845 5843 5842 5840 5839 5837 5835 5833 5831 5829 5827 5824 5822 5820 5817 5815 5813 5810 5808 5805 5803 5800 5798 5795 5793 5791 5788 5786
5844 5844 5845 5845 5845 5845 5845 5844 5843 5843 5843 5842 5841 5839 5838 5837 5836 5834 5833 5831 5830 5828 5826 5824 5822 5820 5818 5815 5813 5810 5808 5805 5803 5800 5798 5795 5792 5790 5787 5785 5782 5780 5777
5834 5835 5835 5836 5836 5836 5836 5835 5834 5833 5833 5833 5832 5830 5829 5828 5827 5826 5825 5823 5822 5820 5818 5816 5814 5812 5810 5807 5805 5802 5800 5797 5795 5792 5789 5787 5784 5781 5779 5776 5774 5771 5768
5824 5825 5825 5825 5826 5826 5825 5825 5825 5824 5823 5823 5822 5821 5820 5819 5818 5817 5815 5814 5812 5811 5809 5807 5806 5803 5801 5799 5796 5794 5791 5788 5786 5783 5781 5778 5775 5773 5770 5767 5765 5762 5760